Newark Heath, OH

10:07 PM EDT on April 29, 2017 (GMT -0400)
Newark Heath

Weather History for KVTA - December, 2012

Change the Weather History Date:

Wednesday, December 26, 2012

  Actual Average Record
Temperature  
Mean Temperature 32 °F -  
Max Temperature 34 °F 33 °F 66 °F (2016)
Min Temperature 30 °F 18 °F -6 °F (1983)
Degree Days  
Heating Degree Days 33    
Moisture  
Dew Point 28 °F    
Average Humidity 85    
Maximum Humidity 93    
Minimum Humidity 73    
Precipitation  
Precipitation 0.58 in - - ()
Sea Level Pressure  
Sea Level Pressure 29.69 in    
Wind  
Wind Speed 10 mph (NE)    
Max Wind Speed 15 mph    
Max Gust Speed 25 mph    
Visibility 4 miles    
Events Fog , Rain , Snow    
Averages and records for this station are not official NWS values.
T = Trace of Precipitation, MM = Missing Value Source: NWS Daily Summary

Daily Weather History Graph

Daily Weather History Graph

Search for Another Location

Airport or City:

Trip Planner

Search our weather history database for the weather conditions in past years. The results will help you decide how hot, cold, wet, or windy it might be!

Date:

Astronomy

Dec. 26, 2012 Rise Set
Actual Time 7:50 AM EST 5:11 PM EST
Civil Twilight 7:19 AM EST 5:41 PM EST
Nautical Twilight 6:45 AM EST 6:15 PM EST
Astronomical Twilight 6:12 AM EST 6:48 PM EST
Moon 4:03 PM EST (12/26) 6:12 AM EST (12/26)
Length of Visible Light 10h 21m
Length of Day
9h 20m
Waxing Gibbous, 97% of the Moon is Illuminated
Dec 26
Waxing Gibbous
Dec 28
Full
Jan 4
Last Quarter
Jan 11
New
Jan 18
First Quarter

Hourly Weather History & Observations

Time (EST) Temp. Windchill Dew Point Humidity Pressure Visibility Wind Dir Wind Speed Gust Speed Precip Events Conditions
12:54 AM 34.0 °F 26.6 °F 26.1 °F 73% 30.09 in 10.0 mi ENE 9.2 mph 17.3 mph N/A   Overcast
1:54 AM 34.0 °F 26.0 °F 26.1 °F 73% 30.07 in 10.0 mi ENE 10.4 mph 19.6 mph N/A   Overcast
2:54 AM 34.0 °F 25.5 °F 26.1 °F 73% 30.01 in 10.0 mi NE 11.5 mph 20.7 mph N/A   Overcast
3:54 AM 34.0 °F 26.6 °F 26.1 °F 73% 29.99 in 10.0 mi NE 9.2 mph 20.7 mph N/A   Overcast
4:54 AM 34.0 °F 25.5 °F 26.1 °F 73% 29.95 in 10.0 mi ENE 11.5 mph 18.4 mph N/A   Overcast
5:38 AM 33.8 °F 25.3 °F 26.6 °F 75% 29.90 in 10.0 mi ENE 11.5 mph 21.9 mph N/A   Overcast
5:54 AM 33.1 °F 23.0 °F 26.1 °F 75% 29.91 in 3.0 mi ENE 15.0 mph 24.2 mph 0.00 in Snow Light Snow
6:15 AM 33.8 °F 25.3 °F 26.6 °F 75% 29.87 in 2.0 mi ENE 11.5 mph 23.0 mph 0.00 in Snow Light Snow
6:33 AM 32.0 °F 24.8 °F 26.6 °F 80% 29.85 in 3.0 mi NE 8.1 mph 20.7 mph 0.00 in Snow Light Snow
6:45 AM 32.0 °F 23.6 °F 26.6 °F 80% 29.83 in 2.5 mi NE 10.4 mph 20.7 mph 0.01 in Snow Light Snow
6:52 AM 32.0 °F 23.0 °F 28.4 °F 87% 29.83 in 4.0 mi NE 11.5 mph 20.7 mph 0.01 in Snow Light Snow
6:54 AM 32.0 °F 22.5 °F 28.0 °F 85% 29.85 in 5.0 mi NE 12.7 mph 20.7 mph 0.01 in   Overcast
7:02 AM 32.0 °F 22.5 °F 28.4 °F 87% 29.81 in 6.0 mi NE 12.7 mph 20.7 mph 0.00 in   Overcast
7:45 AM 32.0 °F 23.6 °F 28.4 °F 87% 29.81 in 6.0 mi ENE 10.4 mph - 0.01 in Rain Light Freezing Rain
7:54 AM 32.0 °F 24.8 °F 28.0 °F 85% 29.82 in 6.0 mi NE 8.1 mph 19.6 mph 0.02 in Rain Light Freezing Rain
8:26 AM 32.0 °F 22.5 °F 28.4 °F 87% 29.76 in 4.0 mi ENE 12.7 mph 23.0 mph 0.04 in Rain Light Freezing Rain
8:54 AM 32.0 °F 23.6 °F 28.9 °F 88% 29.75 in 3.0 mi NE 10.4 mph 20.7 mph 0.12 in Rain Light Freezing Rain
9:33 AM 33.8 °F 25.8 °F 28.4 °F 81% 29.71 in 2.5 mi NE 10.4 mph 20.7 mph 0.11 in Snow Light Snow
9:38 AM 32.0 °F 23.0 °F 30.2 °F 93% 29.71 in 1.5 mi NE 11.5 mph 20.7 mph 0.12 in Snow Light Snow
9:52 AM 33.8 °F 24.3 °F 30.2 °F 87% 29.70 in 2.5 mi ENE 13.8 mph 19.6 mph 0.15 in   Overcast
9:54 AM 33.1 °F 24.4 °F 30.0 °F 89% 29.73 in 2.5 mi ENE 11.5 mph 20.7 mph 0.15 in   Overcast
10:01 AM 32.0 °F 23.0 °F 30.2 °F 93% 29.70 in 0.8 mi ENE 11.5 mph 20.7 mph 0.02 in Snow Light Snow
10:46 AM 33.8 °F 24.3 °F 28.4 °F 81% 29.66 in 2.0 mi NE 13.8 mph 23.0 mph 0.08 in Snow Light Snow
10:54 AM 33.1 °F 24.9 °F 28.9 °F 85% 29.68 in 5.0 mi NE 10.4 mph 25.3 mph 0.08 in Snow Light Snow
11:07 AM 33.8 °F 25.3 °F 28.4 °F 81% 29.64 in 10.0 mi ENE 11.5 mph 23.0 mph 0.00 in Rain Light Rain
11:54 AM 33.1 °F 25.5 °F 28.9 °F 85% 29.65 in 9.0 mi ENE 9.2 mph 20.7 mph 0.00 in Rain Light Rain
12:04 PM 33.8 °F 25.3 °F 28.4 °F 81% 29.62 in 1.8 mi ENE 11.5 mph 19.6 mph 0.01 in Snow Light Snow
12:15 PM 33.8 °F 25.3 °F 30.2 °F 87% 29.62 in 0.5 mi ENE 11.5 mph 17.3 mph 0.04 in Fog , Snow Snow
12:29 PM 33.8 °F 27.0 °F 30.2 °F 87% 29.62 in 1.0 mi NE 8.1 mph 16.1 mph 0.06 in Snow Light Snow
12:43 PM 33.8 °F 25.8 °F 30.2 °F 87% 29.61 in 2.0 mi ENE 10.4 mph 16.1 mph 0.07 in Snow Light Snow
12:54 PM 33.1 °F 25.5 °F 30.0 °F 89% 29.62 in 3.0 mi ENE 9.2 mph - 0.07 in Snow Light Snow
1:26 PM 33.8 °F 24.8 °F 30.2 °F 87% 29.58 in 2.0 mi NE 12.7 mph 20.7 mph 0.00 in Snow Light Snow
1:34 PM 33.8 °F 25.3 °F 30.2 °F 87% 29.57 in 1.5 mi ENE 11.5 mph 20.7 mph 0.00 in Snow Light Snow
1:54 PM 33.1 °F 24.9 °F 30.0 °F 89% 29.59 in 1.2 mi ENE 10.4 mph 16.1 mph 0.01 in Snow Light Snow
2:08 PM 33.8 °F 25.8 °F 30.2 °F 87% 29.56 in 2.5 mi NE 10.4 mph - 0.00 in Snow Light Snow
2:23 PM 33.8 °F 26.4 °F 30.2 °F 87% 29.56 in 1.0 mi ENE 9.2 mph - 0.00 in Snow Light Snow
2:31 PM 33.8 °F 25.8 °F 30.2 °F 87% 29.55 in 0.5 mi ENE 10.4 mph 18.4 mph 0.01 in Fog , Snow Snow
2:40 PM 33.8 °F 27.0 °F 30.2 °F 87% 29.55 in 0.2 mi NE 8.1 mph 16.1 mph 0.02 in Fog , Snow Snow
2:51 PM 33.8 °F 28.6 °F 30.2 °F 87% 29.55 in 0.5 mi Variable 5.8 mph - 0.03 in Fog , Snow Light Snow
2:54 PM 33.1 °F 26.9 °F 30.0 °F 89% 29.57 in 0.8 mi ENE 6.9 mph - 0.03 in Snow Light Snow
3:16 PM 33.8 °F 27.0 °F 30.2 °F 87% 29.55 in 2.0 mi NE 8.1 mph - 0.02 in Snow Light Snow
3:24 PM 33.8 °F 25.8 °F 30.2 °F 87% 29.55 in 7.0 mi NE 10.4 mph 17.3 mph 0.02 in   Overcast
3:54 PM 33.1 °F 25.5 °F 30.0 °F 89% 29.57 in 7.0 mi ENE 9.2 mph 17.3 mph 0.02 in   Overcast
4:05 PM 33.8 °F 27.0 °F 30.2 °F 87% 29.55 in 2.5 mi NE 8.1 mph - 0.00 in Rain Light Freezing Rain
4:18 PM 33.8 °F 27.0 °F 30.2 °F 87% 29.55 in 2.5 mi NE 8.1 mph - 0.00 in Snow Light Snow
4:38 PM 33.8 °F 28.6 °F 30.2 °F 87% 29.55 in 1.5 mi Variable 5.8 mph 21.9 mph 0.01 in Snow Light Snow
4:54 PM 33.1 °F 30.0 °F 30.0 °F 89% 29.58 in 1.5 mi NNE 3.5 mph - 0.02 in Snow Light Snow
5:20 PM 32.0 °F 26.4 °F 30.2 °F 93% 29.57 in 4.0 mi Variable 5.8 mph - 0.00 in   Overcast
5:54 PM 32.0 °F 27.5 °F 28.9 °F 88% 29.60 in 4.0 mi NNE 4.6 mph - 0.01 in   Overcast
6:06 PM 32.0 °F 25.6 °F 30.2 °F 93% 29.58 in 2.5 mi North 6.9 mph - 0.00 in Snow Light Snow
6:13 PM 32.0 °F 25.6 °F 28.4 °F 87% 29.59 in 1.8 mi North 6.9 mph - 0.01 in Snow Light Snow
6:47 PM 30.2 °F 21.9 °F 28.4 °F 93% 29.60 in 1.8 mi North 9.2 mph - 0.03 in Snow Light Snow
6:54 PM 30.9 °F 24.3 °F 28.0 °F 89% 29.63 in 2.0 mi North 6.9 mph - 0.03 in Snow Light Snow
7:06 PM 30.2 °F 21.9 °F 28.4 °F 93% 29.61 in 1.5 mi North 9.2 mph - 0.00 in Snow Light Snow
7:35 PM 30.2 °F 21.9 °F 26.6 °F 86% 29.63 in 2.5 mi North 9.2 mph - 0.01 in Snow Light Snow
7:37 PM 30.2 °F 22.6 °F 26.6 °F 86% 29.63 in 3.0 mi NNW 8.1 mph - 0.01 in Snow Light Snow
7:54 PM 30.9 °F 22.8 °F 27.0 °F 85% 29.66 in 5.0 mi North 9.2 mph - 0.01 in Snow Light Snow
8:12 PM 30.2 °F 20.8 °F 26.6 °F 86% 29.64 in 5.0 mi NNW 11.5 mph - 0.00 in   Overcast
8:54 PM 30.0 °F 21.7 °F 26.1 °F 85% 29.68 in 3.0 mi NNW 9.2 mph - 0.00 in Snow Light Snow
9:54 PM 30.0 °F 22.4 °F 25.0 °F 82% 29.70 in 10.0 mi NNW 8.1 mph - 0.00 in   Overcast
10:08 PM 30.2 °F 21.9 °F 24.8 °F 80% 29.68 in 10.0 mi NNW 9.2 mph - N/A   Overcast
10:45 PM 30.2 °F 21.9 °F 24.8 °F 80% 29.70 in 10.0 mi NW 9.2 mph - N/A   Overcast
10:54 PM 30.0 °F 22.4 °F 25.0 °F 82% 29.72 in 10.0 mi NW 8.1 mph - N/A   Overcast
11:54 PM 30.0 °F 19.5 °F 26.1 °F 85% 29.76 in 10.0 mi NW 13.8 mph 18.4 mph N/A   Overcast